FENGYUN 1C DEB

Satellite information

Favourite Embed

Satellite Type and Status

DEBRISIN ORBIT

Key statistics

Satellite FENGYUN 1C DEB at a glance.

Uptime

9715

Days in orbit

Revolutions

≈ 13.6

Per day

Orbit

SSO

Sun Synchronous Orbit

Inclination

98.4

Latest

Satellite identification and parameters

Extended collection of information and parameters for FENGYUN 1C DEB.

Object identification

Identified? True

Debris? True

Object name: FENGYUN 1C DEB

International designator: 1999-025DXN

Object number (NORAD): 36644

Object ID (CCSDS): 36644

Country: PEOPLES REPUBLIC OF CHINA (PRC)

Current information (Y/N): Y

RCS size: SMALL

Orbital parameters

Period: 105.947 minutes

Inclination: 98.4234 deg

SMA: 7416.856 km

Apoapsis: 1250.68 km

Periapsis: 826.761 km

RAAN: 120.1104 deg

Eccentricy: 0.02857814

Argument of periapsis: 196.1478 deg

Mean anomaly: 163.0413 deg

Mean motion: 13.59167664 rev/day

Mean motion (dot): 0.00002485 rev/day2

B* drag term: 0.0026178612 1/REarth

Two-line elements (TLE)

Creation date: Dec. 6, 2025, 5:59 p.m.

Reference frame: TEME

Reference center: EARTH

Epoch: Dec. 6, 2025, 3:56 p.m. UTC

TLE line 0: 0 FENGYUN 1C DEB

TLE line 1: 1 36644U 99025DXN 25340.66411199 .00002485 00000-0 26179-2 0 9995

TLE line 2: 2 36644 98.4234 120.1104 0285781 196.1478 163.0413 13.59167664614851

Live tracking on map

Real-time ground track for satellite FENGYUN 1C DEB.

In-orbit conjunctions

A list of the most updated potential collisions computed for object FENGYUN 1C DEB.

Target Orbit TCA Probability of collision Miss distance Type
SL-14 DEB LEO 2024-11-14 17:38:54 0.0001290754 730.0 (m) DEBRIS
SL-8 R/B LEO 2024-08-14 19:33:24 0.0002526303 163.0 (m) ROCKET BODY
COSMOS 2034 LEO 2024-07-06 15:46:21 0.0002849212 720.0 (m) PAYLOAD

Associated space launch

Chinese polar orbiting meteorological satellite

FENGYUN 1C DEB was lifted into orbit during the mission ‘Long March 4B | Feng Yun 1C’, on board a Long March 4B space rocket.

The launch took place on May 10, 1999, 1:33 a.m. from Launch Complex 7.

For more information about the launch, click the button.

Launch to space Long March 4B | Feng Yun 1C
Long March 4B | Feng Yun 1C

Agency: N/A

Status: Launch Successful

Launch date: May 10, 1999, 1:33 a.m. UTC

Rocket: Long March 4B

Launch pad: Launch Complex 7

Location: Taiyuan Satellite Launch Center, People's Republic of China

...

Latest news about this satellite

There are no fresh news available about this satellite. Check back as we update our databases every day.


Newsletter sign-up

Weekly statistics, charts and insights to help you stay on top of the space industry.